Theta_e
318 312 312 307 301 296 293 295 297 297 299 304 302 300 302 304 300 297 318 331 340 342 346 348 348 350 352 350 349 349 349 346 344 342 342 340 339 337 337 337 338 339 340 342 343 341 342 344 342
314 312 307 300 295 290 291 295 296 298 304 305 304 305 306 306 313 319 326 335 342 344 346 348 346 350 352 350 350 348 348 346 343 342 340 339 337 336 336 336 336 337 337 342 339 341 343 342 341
312 307 305 296 290 290 291 295 297 301 302 301 305 309 308 308 313 318 325 338 344 345 346 347 346 350 351 350 349 348 348 345 343 341 339 337 335 334 333 334 335 336 337 338 340 342 342 341 339
308 305 298 294 293 295 296 297 298 301 302 303 306 305 311 315 316 320 334 343 344 345 346 345 347 350 350 348 348 347 347 346 343 341 338 336 333 331 331 332 332 334 335 336 339 340 339 337 336
300 299 293 292 292 294 294 297 300 300 299 302 303 301 309 314 313 322 334 342 342 344 345 346 345 348 349 348 347 347 346 345 342 340 337 335 332 330 329 328 329 331 333 333 335 334 332 330 329
298 297 291 290 291 294 296 297 299 298 299 301 302 304 309 310 314 325 334 340 343 343 344 345 339 342 344 346 346 346 345 345 342 340 337 335 331 328 327 326 326 328 329 330 330 329 327 324 322
296 293 291 289 290 294 296 297 296 297 298 300 305 303 306 308 314 326 335 337 340 342 343 344 344 341 337 340 341 342 343 343 342 340 337 335 333 330 329 329 326 325 325 326 325 324 322 321 319
294 293 289 289 290 292 296 296 297 298 298 301 304 301 303 312 320 321 325 326 329 335 341 341 342 342 343 343 335 337 339 340 339 337 333 331 330 329 330 328 328 325 323 322 321 320 319 318 317
296 290 287 290 290 293 295 295 296 298 298 299 300 301 303 312 315 317 318 318 320 321 329 339 340 341 340 341 336 333 334 335 333 331 327 326 328 327 328 326 328 327 325 322 321 320 317 315 315
292 288 289 291 292 293 295 295 296 297 297 297 298 300 303 313 314 318 320 321 319 319 319 323 327 328 336 337 339 340 340 339 335 332 330 328 327 327 326 323 324 325 324 322 320 317 313 309 308
291 289 291 292 294 295 295 294 296 295 294 297 298 299 302 311 313 317 320 321 319 316 315 316 320 320 326 334 338 340 339 338 333 331 329 328 326 324 322 320 318 318 315 316 314 312 311 309 308
291 292 292 295 296 295 294 295 294 294 297 298 298 300 301 309 313 316 318 316 312 312 313 314 315 318 319 322 334 336 337 335 332 330 329 326 325 322 322 318 317 317 316 314 313 312 310 307 305
292 292 294 295 294 293 295 295 295 294 296 298 297 298 300 306 312 312 314 312 311 311 310 312 313 315 316 320 330 333 335 335 334 329 328 326 324 321 319 318 317 315 315 312 310 310 306 302 299
293 294 294 295 295 295 294 293 294 296 296 296 296 297 298 301 308 307 306 309 307 308 309 310 312 314 317 321 326 327 328 333 332 329 326 326 324 320 317 316 313 313 312 308 308 307 301 298 295
294 291 293 293 293 294 295 293 293 295 295 295 295 296 296 298 300 306 310 307 306 306 306 308 310 314 317 319 321 320 320 323 329 330 327 325 322 318 316 314 311 310 308 305 307 302 299 294 292
291 290 287 291 293 293 294 289 294 294 294 295 295 294 295 297 298 301 302 304 304 304 304 306 310 312 312 315 314 314 314 315 316 322 325 322 320 317 314 311 308 305 303 305 303 301 296 292 291
288 284 285 289 293 292 291 290 293 293 292 293 293 294 294 295 296 297 299 301 302 303 304 305 307 309 309 309 309 309 308 309 310 313 318 318 316 314 312 308 303 299 300 301 301 299 294 291 290
284 284 285 286 290 290 289 290 293 293 292 293 294 294 294 295 297 299 297 299 301 301 303 304 305 306 306 304 303 302 302 301 303 306 309 312 312 310 308 302 298 299 298 298 298 295 294 292 290
286 285 285 287 291 290 289 290 293 294 291 292 294 294 295 295 299 297 296 297 299 300 300 301 302 303 303 303 302 301 299 298 297 298 303 306 305 304 303 297 295 296 298 297 296 294 291 289 290
287 285 285 288 289 290 289 288 291 294 292 295 297 298 296 297 294 294 294 296 298 299 300 299 302 302 302 305 302 300 297 294 294 294 295 298 300 299 298 295 293 294 294 294 295 294 290 289 289
286 285 285 287 288 288 286 286 288 292 294 296 296 298 300 297 295 293 293 295 297 298 300 299 302 302 302 300 296 294 294 293 292 292 292 292 294 294 294 293 291 292 295 294 295 293 291 288 285
284 289 288 287 286 282 286 282 287 291 293 293 295 297 295 295 294 293 293 294 296 299 301 300 302 302 302 298 298 298 298 296 294 292 291 290 291 290 290 289 290 292 293 292 293 290 289 288 285
287 289 287 286 284 283 283 282 286 288 289 293 298 297 295 294 294 293 293 295 296 298 300 299 301 302 299 298 299 299 299 294 292 290 288 288 288 288 287 287 287 288 289 288 289 287 287 287 285
290 288 286 284 283 279 283 284 286 287 290 292 294 295 294 294 292 292 292 293 295 298 298 299 300 300 297 297 298 300 295 291 289 288 288 286 286 286 286 285 285 285 286 286 285 285 285 285 284
288 287 281 278 277 280 281 281 289 291 291 292 294 294 293 293 292 290 290 292 294 296 297 298 299 298 296 296 296 296 294 292 291 289 288 285 284 284 283 284 283 284 284 284 284 284 283 283 283
286 286 281 274 275 279 281 279 286 290 292 292 292 292 292 293 291 289 290 291 293 296 297 298 298 295 295 295 295 293 292 292 291 289 288 287 285 284 283 283 283 283 283 283 283 282 282 282 282
285 284 287 282 270 275 282 284 289 290 290 292 293 291 291 291 290 289 289 291 292 295 298 298 297 295 294 294 292 291 291 289 288 287 286 285 284 283 282 282 282 282 282 282 282 281 280 280 280
288 289 283 281 274 272 280 281 285 289 290 291 290 291 291 290 288 288 289 290 292 295 298 297 296 293 294 293 291 290 289 289 287 285 283 283 283 283 282 282 281 281 281 280 280 280 279 279 279
285 284 283 284 281 276 274 283 287 290 291 291 291 291 291 290 288 288 288 289 291 294 294 293 293 292 292 291 290 289 288 287 285 285 283 283 282 282 281 281 280 280 279 279 279 279 279 278 278
285 286 286 281 277 279 278 285 290 290 291 291 292 291 290 289 288 288 288 289 290 291 291 291 292 291 291 290 289 288 287 285 284 284 283 283 282 282 281 280 279 279 279 279 279 278 278 277 277
Wind_Speed
4 4 3 5 4 5 1 3 0 2 2 1 4 5 5 2 3 2 1 6 7 11 9 11 11 12 12 12 13 13 14 14 14 15 16 15 16 16 16 15 15 16 17 16 16 16 14 17 20
2 2 5 3 5 3 4 3 4 4 3 6 4 3 2 2 1 3 4 5 10 11 9 10 11 12 12 12 11 11 14 15 14 15 15 15 16 16 16 16 16 17 16 16 17 13 13 19 21
3 4 4 5 3 3 4 4 4 2 5 2 3 2 4 4 1 3 1 8 10 10 9 9 11 13 13 12 11 13 13 14 14 15 15 16 16 16 16 17 17 17 16 18 16 19 22 22 22
3 4 5 5 3 3 3 3 4 6 3 2 3 4 1 1 2 1 2 10 12 10 9 9 11 12 12 12 12 12 13 15 15 15 15 15 16 16 17 17 17 17 18 19 18 21 21 21 22
5 3 5 3 3 2 4 2 6 6 2 3 2 4 2 2 1 1 7 10 13 10 9 10 11 11 11 11 12 12 14 16 15 15 15 16 16 16 17 17 17 18 18 18 19 20 21 21 21
5 3 4 2 4 3 3 5 6 4 2 2 2 5 4 1 2 2 7 9 10 12 10 10 11 11 11 11 11 12 14 15 15 15 15 16 16 17 17 18 18 18 18 18 19 20 21 21 21
7 5 4 4 3 3 5 7 5 6 4 4 3 6 2 2 3 4 7 6 7 7 10 9 10 11 11 11 11 12 14 14 14 14 15 15 15 15 16 16 17 18 18 18 19 20 20 21 21
6 6 4 3 4 5 5 6 2 6 6 1 2 4 4 4 6 6 6 5 5 4 7 8 8 8 9 10 11 11 12 12 13 14 14 13 12 12 13 12 16 18 18 19 20 20 21 22 21
3 6 2 5 7 5 4 5 1 2 5 3 4 3 0 3 8 6 5 4 4 4 5 7 8 9 8 9 9 11 12 12 12 11 10 12 9 10 12 11 16 18 19 20 20 20 21 21 22
6 5 8 4 5 3 4 3 7 4 2 4 4 4 2 5 5 9 8 9 6 7 5 3 6 5 4 4 9 9 9 8 8 8 7 5 8 8 10 10 14 17 19 21 21 21 19 15 9
2 5 4 4 4 3 3 2 6 7 5 8 10 6 6 6 7 9 9 8 10 5 5 5 5 5 4 3 5 4 5 6 6 8 7 7 6 7 5 5 5 7 9 8 11 11 9 12 9
3 1 4 1 2 3 3 5 4 7 7 2 8 4 7 11 13 13 12 9 8 7 6 4 3 5 3 1 2 4 6 6 6 7 8 7 5 6 6 5 6 7 5 9 10 8 11 14 14
2 1 2 2 1 2 2 5 5 9 8 1 2 6 11 11 11 5 5 5 6 7 6 5 3 3 4 3 2 2 5 6 8 8 7 6 6 6 5 6 5 4 7 6 8 11 10 12 14
2 1 3 3 1 2 3 1 2 5 4 5 5 9 9 12 15 4 6 9 8 6 7 5 4 4 4 4 5 2 1 7 8 8 7 7 7 7 6 6 5 4 6 7 6 9 10 9 10
2 3 5 3 1 3 3 7 11 4 2 7 9 8 8 12 7 15 12 11 10 6 6 8 6 4 5 5 4 2 1 1 6 7 11 10 8 9 8 6 5 6 7 11 10 10 12 11 9
4 5 2 2 4 1 5 10 6 2 5 11 9 7 9 11 14 11 9 9 9 7 9 7 5 6 6 6 3 3 2 1 1 4 7 10 9 10 9 7 6 5 4 7 9 9 11 10 9
5 3 5 8 7 2 4 8 5 2 5 9 8 9 10 11 10 14 13 12 10 9 8 8 7 7 6 5 4 3 4 2 2 2 5 9 9 9 9 8 6 7 6 6 9 9 11 10 11
7 5 5 5 4 3 4 14 12 5 5 10 9 9 12 14 21 16 13 10 9 9 9 8 7 8 8 6 5 4 3 3 3 3 3 8 8 9 9 9 7 6 8 7 7 14 9 10 11
6 5 5 5 4 4 10 11 15 8 6 13 15 15 17 19 16 8 9 10 9 8 10 10 10 9 8 6 4 3 3 2 3 3 3 6 7 10 9 8 8 7 8 11 10 12 16 9 11
4 4 6 6 3 6 8 13 13 13 11 15 19 18 19 16 6 7 10 12 14 13 13 11 12 13 9 7 4 3 4 3 3 3 4 4 6 9 9 11 10 8 8 11 13 15 9 6 4
5 6 5 8 3 3 5 9 8 9 12 15 18 23 19 12 12 10 13 16 14 15 17 15 14 14 11 10 8 6 6 5 3 3 3 2 6 8 9 10 10 10 10 11 12 13 11 8 2
6 9 5 4 2 5 1 10 6 8 9 7 16 15 12 12 7 8 13 12 16 16 12 14 13 13 10 12 9 11 8 7 5 4 4 4 5 7 8 9 9 10 7 10 10 7 5 7 7
7 5 6 3 3 4 2 4 4 3 6 15 20 12 6 8 10 11 14 14 13 12 14 13 14 14 12 12 10 8 7 4 7 7 8 5 4 5 6 7 7 9 7 7 9 7 7 4 6
9 6 6 4 3 5 11 9 5 7 9 8 7 7 1 5 6 5 5 7 10 11 13 13 14 13 12 11 10 11 10 10 8 8 7 5 4 5 5 8 6 7 10 8 7 8 8 6 6
2 6 2 4 1 10 2 5 13 9 8 7 8 7 6 5 4 6 8 9 10 13 13 13 14 12 12 11 11 10 10 11 13 12 8 9 6 4 6 8 9 7 10 9 9 9 9 8 8
9 9 8 8 5 6 1 10 9 11 10 7 7 7 8 7 5 6 6 8 11 14 15 15 15 13 12 11 10 8 9 6 7 9 9 8 7 6 7 6 7 9 10 10 9 8 7 10 8
7 8 3 5 2 2 7 8 9 11 13 9 9 8 8 7 5 5 5 7 8 12 16 14 14 12 13 12 9 8 9 9 9 9 8 5 6 6 8 8 9 10 11 11 11 8 10 10 9
5 8 4 2 3 6 6 7 9 5 6 4 1 5 6 3 3 4 5 6 6 9 14 12 13 12 12 12 11 10 11 11 10 9 10 10 9 9 10 10 9 10 10 10 10 10 9 11 8
4 4 1 5 5 6 3 10 9 11 7 7 4 5 6 6 5 5 6 6 6 6 9 10 11 12 12 12 11 11 10 11 11 11 11 12 13 13 13 12 12 12 12 11 10 10 11 12 11
2 9 7 7 6 5 3 20 5 7 8 7 6 4 5 3 2 2 3 4 7 8 8 10 11 11 12 11 10 9 9 9 10 10 11 11 12 11 12 13 12 12 11 11 12 12 11 12 12
Wind_Direction
8 40 74 47 59 62 280 254 65 156 186 152 104 151 178 89 162 179 256 185 155 144 150 150 146 142 131 128 126 126 121 104 97 91 87 86 84 81 79 79 76 75 77 74 77 76 73 86 81
15 103 51 77 84 69 265 265 205 204 131 126 96 93 102 134 198 135 139 173 152 141 145 143 142 139 135 133 132 127 118 106 102 95 91 89 84 83 83 79 77 79 79 78 78 70 87 92 85
112 39 79 89 108 170 217 218 169 95 148 161 110 47 146 163 173 157 289 158 147 141 140 139 137 142 141 138 134 131 124 109 104 98 94 90 87 83 81 81 80 80 83 79 79 81 81 84 82
72 23 49 82 228 215 216 203 155 134 251 221 145 116 249 220 170 148 145 151 146 146 141 140 138 142 140 142 140 137 131 118 113 105 100 94 91 90 88 85 85 85 83 82 80 81 82 83 80
37 58 69 80 270 244 252 221 165 162 168 166 200 183 197 233 270 245 167 155 150 152 151 148 144 141 142 146 147 142 136 124 120 114 108 104 100 95 91 90 88 86 87 85 84 86 84 81 79
53 94 71 212 251 248 240 172 154 175 152 160 134 152 206 306 190 162 170 165 159 158 162 157 153 148 148 148 151 146 139 130 124 118 110 104 99 97 94 92 90 89 88 88 86 84 82 81 80
114 87 186 167 243 288 206 148 167 177 161 240 151 146 241 239 180 137 147 146 162 163 165 165 163 160 153 149 151 148 144 136 128 122 112 104 100 99 98 96 93 90 89 87 88 86 85 83 80
102 91 119 218 195 248 184 181 153 159 215 79 194 199 208 198 145 125 120 120 130 141 169 164 163 164 161 154 147 147 142 141 134 127 122 107 99 95 89 87 94 93 91 89 87 86 85 82 80
133 67 174 219 160 233 148 181 80 129 123 233 207 191 299 118 129 123 126 113 124 114 130 163 159 170 162 155 154 148 148 146 131 127 125 122 125 116 106 100 103 100 96 92 89 87 86 84 78
85 114 215 199 197 210 194 179 164 152 159 242 273 240 122 148 169 166 174 170 169 167 160 154 132 120 142 150 164 166 159 150 144 143 141 125 126 121 111 91 95 100 101 99 95 92 87 82 80
140 173 193 208 215 193 176 188 166 139 233 215 207 192 174 179 190 187 191 182 182 171 167 181 149 126 149 177 166 159 160 152 144 149 142 137 127 123 113 110 99 100 94 100 97 92 83 82 80
110 161 184 233 182 138 180 123 191 204 220 194 228 175 166 186 198 197 196 184 170 175 173 168 157 150 155 157 228 163 158 155 151 162 154 147 136 129 125 114 121 114 104 110 102 92 90 82 77
127 209 234 287 223 214 162 226 220 243 236 211 116 175 192 196 205 212 192 181 175 189 181 178 173 179 171 194 209 188 170 167 164 157 161 154 142 133 128 127 119 112 119 103 109 104 92 83 82
153 189 293 291 218 236 209 218 159 258 150 190 194 216 210 207 204 174 195 199 197 184 188 176 190 187 182 191 206 204 232 165 165 157 162 156 146 140 134 126 120 110 119 102 99 104 98 88 88
87 344 327 238 251 241 164 293 234 217 163 227 227 226 225 225 196 213 206 204 189 197 180 189 188 185 175 175 189 191 208 241 160 165 163 159 152 145 135 130 129 131 126 109 105 101 101 98 92
61 46 354 268 158 254 153 267 261 103 185 244 246 240 238 233 224 224 205 205 192 181 187 176 178 171 163 179 166 162 131 87 85 141 158 152 149 144 137 131 131 110 106 120 117 117 105 103 101
7 222 209 308 201 138 167 262 253 148 205 267 255 246 242 250 237 229 213 203 191 188 171 177 177 172 157 139 128 117 102 99 79 86 144 150 143 143 137 130 132 127 115 111 125 118 117 116 110
197 210 236 234 210 182 205 258 274 221 217 249 256 250 244 243 238 224 205 193 182 178 177 170 174 166 148 125 114 86 87 86 63 52 94 135 138 137 133 121 127 132 131 117 138 124 115 121 121
139 182 204 240 230 176 228 244 253 260 228 252 254 246 239 235 242 200 185 178 173 177 174 176 169 167 152 146 148 141 150 132 90 71 78 120 140 135 141 132 136 138 146 133 152 125 126 122 131
160 188 244 280 243 188 274 256 248 253 235 227 245 250 243 242 197 186 182 182 185 179 183 177 179 172 172 161 148 137 141 98 105 115 83 121 136 137 147 145 146 148 140 141 158 146 135 129 191
214 192 209 227 326 236 311 275 235 262 250 254 247 248 257 236 226 200 192 196 181 181 184 184 179 172 176 148 129 114 101 103 115 133 117 126 146 143 151 152 158 155 155 163 164 154 148 149 125
234 203 177 181 84 249 10 285 251 230 241 252 256 248 239 232 227 202 198 190 193 195 177 181 176 173 172 162 170 173 169 162 174 153 145 154 130 146 148 145 159 154 161 162 164 149 129 131 140
227 124 164 137 170 3 289 283 207 92 259 255 255 261 250 238 222 213 199 202 193 175 177 179 176 174 171 176 180 179 176 137 140 139 142 132 112 112 130 139 140 151 145 143 141 137 143 131 151
146 80 55 55 93 269 200 193 178 184 201 257 264 278 313 309 260 237 185 159 171 169 168 173 176 178 171 175 179 187 164 150 144 151 150 156 144 133 149 117 120 146 133 139 135 135 138 138 125
140 114 299 326 2 241 1 226 260 276 235 235 244 261 289 278 228 201 177 171 165 175 174 172 175 174 172 174 178 177 169 167 164 166 165 153 161 160 162 145 144 142 129 127 128 122 120 123 121
198 165 168 208 204 267 152 238 249 234 271 248 284 280 278 281 243 222 196 174 174 179 179 176 177 169 172 175 177 165 160 166 168 171 160 167 170 155 143 125 124 125 118 116 113 109 112 117 111
195 210 171 89 84 17 222 282 282 261 280 302 292 307 290 273 263 218 179 177 182 185 188 179 174 168 170 173 161 159 161 158 160 153 151 144 123 127 123 124 128 128 124 124 124 121 115 105 101
161 168 96 352 185 255 271 268 225 246 225 202 191 295 307 295 221 194 182 181 185 192 190 175 174 170 167 167 166 165 165 161 156 149 143 138 129 146 134 135 134 124 121 122 121 116 115 114 112
147 195 166 127 157 185 290 262 217 222 187 177 225 288 306 290 204 200 182 168 173 184 184 171 166 164 166 167 166 163 165 160 157 159 155 155 149 152 151 146 144 140 135 130 122 121 126 121 125
251 198 159 145 219 237 165 262 183 198 169 182 262 278 268 245 180 184 185 168 171 179 175 180 174 169 170 164 162 164 158 158 160 160 160 155 156 155 156 150 144 140 137 136 136 138 142 138 141